Pierce City, MO

7:46 PM CDT on September 26, 2016 (GMT -0500)
Monett

Weather History for KHFJ - August, 2014

Change the Weather History Date:

Friday, August 15, 2014

  Actual Average (KJLN) Record (KJLN)
Temperature  
Mean Temperature 76 °F 80 °F  
Max Temperature 87 °F 92 °F 104 °F (1956)
Min Temperature 64 °F 69 °F 49 °F (1994)
Degree Days  
Heating Degree Days 0 0  
Month to date heating degree days 0  
Since 1 June heating degree days 5  
Since 1 July heating degree days 0  
Cooling Degree Days 10 15  
Month to date cooling degree days 236  
Year to date cooling degree days 1207  
Since 1 June cooling degree days 1027  
Growing Degree Days 26 (Base 50)    
Moisture  
Dew Point 64 °F    
Average Humidity 68    
Maximum Humidity 94    
Minimum Humidity 49    
Precipitation  
Precipitation 0.00 in 0.10 in 2.68 in (2005)
Month to date precipitation 1.52  
Year to date precipitation 29.14  
Sea Level Pressure  
Sea Level Pressure 30.00 in    
Wind  
Wind Speed 7 mph (South)    
Max Wind Speed 14 mph    
Max Gust Speed 20 mph    
Visibility 10 miles    
Events      
T = Trace of Precipitation, MM = Missing Value Source: NWS Daily Summary

Daily Weather History Graph

Daily Weather History Graph

Search for Another Location

Airport or City:

Trip Planner

Search our weather history database for the weather conditions in past years. The results will help you decide how hot, cold, wet, or windy it might be!

Date:

Astronomy

Aug. 15, 2014 Rise Set
Actual Time 6:33 AM CDT 8:07 PM CDT
Civil Twilight 6:05 AM CDT 8:34 PM CDT
Nautical Twilight 5:32 AM CDT 9:07 PM CDT
Astronomical Twilight 4:57 AM CDT 9:42 PM CDT
Moon 11:20 PM CDT (8/15) 12:07 PM CDT (8/15)
Length of Visible Light 14h 29m
Length of Day
13h 34m
Waning Gibbous, 69% of the Moon is Illuminated
Aug 15
Waning Gibbous
Aug 17
Last Quarter
Aug 25
New
Sep 2
First Quarter
Sep 8
Full

Hourly Weather History & Observations

Time (CDT) Temp. Heat Index Dew Point Humidity Pressure Visibility Wind Dir Wind Speed Gust Speed Precip Events Conditions
12:15 AM 68.0 °F - 62.6 °F 83% 30.03 in 10.0 mi SSE 4.6 mph - N/A   Clear
12:35 AM 66.2 °F - 62.6 °F 88% 30.03 in 10.0 mi South 4.6 mph - N/A   Clear
12:55 AM 68.0 °F - 62.6 °F 83% 30.03 in 10.0 mi SSE 3.5 mph - N/A   Clear
1:15 AM 68.0 °F - 62.6 °F 83% 30.03 in 10.0 mi SSE 4.6 mph - N/A   Clear
1:35 AM 68.0 °F - 62.6 °F 83% 30.02 in 10.0 mi SSE 4.6 mph - N/A   Clear
1:55 AM 66.2 °F - 62.6 °F 88% 30.02 in 10.0 mi South 4.6 mph - N/A   Clear
2:15 AM 66.2 °F - 62.6 °F 88% 30.01 in 10.0 mi SSE 3.5 mph - N/A   Clear
2:35 AM 66.2 °F - 62.6 °F 88% 30.01 in 10.0 mi SSE 4.6 mph - N/A   Clear
2:55 AM 66.2 °F - 62.6 °F 88% 30.02 in 10.0 mi South 4.6 mph - N/A   Clear
3:15 AM 66.2 °F - 62.6 °F 88% 30.01 in 10.0 mi South 4.6 mph - N/A   Clear
3:35 AM 66.2 °F - 60.8 °F 83% 30.02 in 10.0 mi South 3.5 mph - N/A   Clear
3:55 AM 66.2 °F - 60.8 °F 83% 30.02 in 10.0 mi South 4.6 mph - N/A   Clear
4:15 AM 66.2 °F - 60.8 °F 83% 30.02 in 10.0 mi South 5.8 mph - N/A   Clear
4:35 AM 66.2 °F - 60.8 °F 83% 30.01 in 10.0 mi South 6.9 mph - N/A   Clear
4:55 AM 68.0 °F - 62.6 °F 83% 30.01 in 10.0 mi South 6.9 mph - N/A   Clear
5:35 AM 66.2 °F - 60.8 °F 83% 30.02 in 10.0 mi South 5.8 mph - N/A   Clear
5:55 AM 66.2 °F - 62.6 °F 88% 30.02 in 10.0 mi South 4.6 mph - N/A   Clear
6:15 AM 64.4 °F - 62.6 °F 94% 30.03 in 10.0 mi SSE 4.6 mph - N/A   Clear
6:35 AM 64.4 °F - 60.8 °F 88% 30.03 in 10.0 mi SSE 4.6 mph - N/A   Clear
6:55 AM 64.4 °F - 62.6 °F 94% 30.03 in 10.0 mi SSE 5.8 mph - N/A   Clear
7:15 AM 66.2 °F - 62.6 °F 88% 30.04 in 10.0 mi SSE 5.8 mph - N/A   Clear
7:35 AM 68.0 °F - 62.6 °F 83% 30.04 in 10.0 mi South 6.9 mph - N/A   Clear
7:55 AM 69.8 °F - 62.6 °F 78% 30.05 in 10.0 mi South 5.8 mph - N/A   Clear
8:15 AM 71.6 °F - 64.4 °F 78% 30.05 in 10.0 mi South 6.9 mph - N/A   Clear
8:35 AM 73.4 °F - 64.4 °F 73% 30.05 in 10.0 mi South 6.9 mph - N/A   Clear
8:55 AM 75.2 °F - 64.4 °F 69% 30.05 in 10.0 mi South 6.9 mph - N/A   Clear
9:15 AM 77.0 °F - 64.4 °F 65% 30.05 in 10.0 mi SSW 10.4 mph - N/A   Clear
9:35 AM 77.0 °F - 64.4 °F 65% 30.05 in 10.0 mi SSW 12.7 mph - N/A   Clear
9:55 AM 78.8 °F - 64.4 °F 61% 30.05 in 10.0 mi SSW 11.5 mph - N/A   Clear
10:15 AM 80.6 °F 82.3 °F 64.4 °F 58% 30.05 in 10.0 mi SSW 8.1 mph - N/A   Clear
10:35 AM 80.6 °F 82.3 °F 64.4 °F 58% 30.05 in 10.0 mi SSW 10.4 mph - N/A   Clear
10:55 AM 82.4 °F 83.9 °F 64.4 °F 54% 30.05 in 10.0 mi SSW 10.4 mph - N/A   Clear
11:15 AM 82.4 °F 83.9 °F 64.4 °F 54% 30.05 in 10.0 mi SW 10.4 mph - N/A   Clear
11:35 AM 84.2 °F 85.6 °F 64.4 °F 51% 30.05 in 10.0 mi SSW 13.8 mph 19.6 mph N/A   Clear
11:55 AM 84.2 °F 85.6 °F 64.4 °F 51% 30.04 in 10.0 mi South 12.7 mph 16.1 mph N/A   Clear
12:15 PM 82.4 °F 83.9 °F 64.4 °F 54% 30.03 in 10.0 mi South 11.5 mph - N/A   Clear
12:35 PM 84.2 °F 85.6 °F 64.4 °F 51% 30.03 in 10.0 mi South 6.9 mph - N/A   Clear
12:55 PM 82.4 °F 83.9 °F 64.4 °F 54% 30.03 in 10.0 mi SSW 11.5 mph - N/A   Clear
1:15 PM 86.0 °F 88.2 °F 66.2 °F 51% 30.02 in 10.0 mi SSE 9.2 mph - N/A   Clear
1:35 PM 84.2 °F 86.6 °F 66.2 °F 55% 30.02 in 10.0 mi SW 8.1 mph - N/A   Scattered Clouds
1:55 PM 86.0 °F 88.2 °F 66.2 °F 51% 30.01 in 10.0 mi SSW 10.4 mph - N/A   Clear
2:15 PM 86.0 °F 88.2 °F 66.2 °F 51% 30.00 in 10.0 mi South 9.2 mph - N/A   Scattered Clouds
2:35 PM 86.0 °F 88.2 °F 66.2 °F 51% 30.00 in 10.0 mi South 9.2 mph - N/A   Clear
2:55 PM 86.0 °F 88.2 °F 66.2 °F 51% 29.99 in 10.0 mi South 9.2 mph 16.1 mph N/A   Clear
3:15 PM 87.8 °F 90.4 °F 66.2 °F 49% 29.99 in 10.0 mi SSW 10.4 mph - N/A   Clear
3:35 PM 86.0 °F 88.2 °F 66.2 °F 51% 29.97 in 10.0 mi South 8.1 mph - N/A   Clear
3:55 PM 86.0 °F 88.2 °F 66.2 °F 51% 29.96 in 10.0 mi SSE 10.4 mph - N/A   Clear
4:15 PM 87.8 °F 90.4 °F 66.2 °F 49% 29.96 in 10.0 mi South 9.2 mph - N/A   Clear
4:35 PM 87.8 °F 90.4 °F 66.2 °F 49% 29.96 in 10.0 mi South 8.1 mph - N/A   Clear
4:55 PM 86.0 °F 88.2 °F 66.2 °F 51% 29.96 in 10.0 mi South 10.4 mph - N/A   Clear
5:15 PM 86.0 °F 88.2 °F 66.2 °F 51% 29.95 in 10.0 mi South 8.1 mph - N/A   Clear
5:35 PM 86.0 °F 88.2 °F 66.2 °F 51% 29.95 in 10.0 mi South 8.1 mph - N/A   Clear
5:55 PM 86.0 °F 88.2 °F 66.2 °F 51% 29.95 in 10.0 mi South 10.4 mph - N/A   Clear
6:15 PM 84.2 °F 87.3 °F 68.0 °F 58% 29.95 in 10.0 mi South 5.8 mph - N/A   Clear
6:35 PM 82.4 °F 85.4 °F 68.0 °F 62% 29.94 in 10.0 mi South 5.8 mph - N/A   Clear
6:55 PM 82.4 °F 85.4 °F 68.0 °F 62% 29.93 in 10.0 mi South 8.1 mph - N/A   Clear
7:15 PM 80.6 °F 83.2 °F 68.0 °F 65% 29.93 in 10.0 mi South 8.1 mph - N/A   Clear
7:35 PM 80.6 °F 83.2 °F 68.0 °F 65% 29.93 in 10.0 mi South 6.9 mph - N/A   Clear
7:55 PM 78.8 °F - 68.0 °F 69% 29.92 in 10.0 mi SSE 6.9 mph - N/A   Clear
8:15 PM 78.8 °F - 66.2 °F 65% 29.92 in 10.0 mi South 8.1 mph - N/A   Clear
8:35 PM 78.8 °F - 68.0 °F 69% 29.92 in 10.0 mi SSE 10.4 mph - N/A   Clear
9:15 PM 77.0 °F - 66.2 °F 69% 29.93 in 10.0 mi South 11.5 mph - N/A   Clear
9:35 PM 77.0 °F - 66.2 °F 69% 29.94 in 10.0 mi SSE 10.4 mph - N/A   Clear
9:55 PM 77.0 °F - 64.4 °F 65% 29.94 in 10.0 mi South 11.5 mph - N/A   Clear
10:15 PM 77.0 °F - 64.4 °F 65% 29.95 in 10.0 mi South 9.2 mph - N/A   Clear
10:35 PM 75.2 °F - 64.4 °F 69% 29.94 in 10.0 mi South 9.2 mph - N/A   Clear
11:15 PM 75.2 °F - 64.4 °F 69% 29.95 in 10.0 mi South 9.2 mph - N/A   Clear
11:35 PM 73.4 °F - 64.4 °F 73% 29.94 in 10.0 mi South 10.4 mph - N/A   Clear
11:55 PM 73.4 °F - 64.4 °F 73% 29.94 in 10.0 mi South 8.1 mph - N/A   Clear